Weather observations for the past three days for
Columbus / Bakalar
Imperial (Metric)
Date Time (edt) Wind (mph) Vis. (mi.) Weather Sky Cond. Temperature (ºF) Relative Humidity Wind Chill (°F) Heat Index (°F) Pressure Precipitation (in)
Air Dwpt 6 hour altimeter (in) sea level (mb) 1 hr 3 hr 6 hr
Max. Min.
23 21:50 Calm 10.00 Fair CLR 73.4 68 83% 29.83 0.0
23 20:55 W 7 10.00 Fair CLR 77 66.2 69% 79 29.81 0.0
23 19:45 NW 10 10.00 Fair CLR 82.4 66.2 58% 85 29.81 0.0
23 18:45 W 12 G 18 10.00 Fair CLR 82.4 66.2 58% 85 29.8 0.0
23 17:55 NW 12 10.00 Partly Cloudy SCT047 84.2 66.2 55% 87 29.8 0.0
23 16:45 NW 9 10.00 Partly Cloudy SCT038 SCT046 SCT050 84.2 68 58% 87 29.79 0.0
23 15:45 W 12 10.00 Partly Cloudy SCT032 SCT043 SCT050 84.2 71.6 66% 90 29.79 0.0
23 14:45 W 9 10.00 Partly Cloudy SCT070 82.4 73.4 74% 88 29.79 0.0
23 13:45 W 9 7.00 Mostly Cloudy SCT016 BKN024 BKN039 80.6 75.2 84% 86 29.81 0.0
23 12:45 SW 13 G 16 7.00 Overcast OVC016 77 73.4 89% 78 29.81 0.0
23 11:55 SW 14 G 20 7.00 Overcast OVC016 77 73.4 89% 78 29.81 0.0
23 10:48 SW 14 G 21 7.00 Overcast OVC016 75.2 73.4 94% 74 29.81 0.0
23 09:58 SW 15 7.00 Overcast SCT011 BKN060 OVC065 75.2 73.4 94% 74 29.8 0.0
23 09:04 SW 12 7.00 Overcast SCT011 BKN070 OVC100 73.4 73.4 100% 29.83 0.0
23 08:58 SW 12 G 17 7.00 Overcast BKN015 BKN055 OVC100 73.4 73.4 100% 29.82 0.0
23 08:55 SW 9 4.00 Light Rain Fog/Mist SCT010 BKN033 OVC048 73.4 71.6 94% 29.83 0.0
23 07:55 SW 9 4.00 Light Rain Fog/Mist SCT010 BKN033 OVC050 73.4 71.6 94% 29.83 0.0
23 06:45 W 12 7.00 Light Rain OVC055 77 68 74% 79 29.82 0.0
22 21:45 SW 9 10.00 Fair CLR 82.4 64.4 55% 84 29.88 0.0
22 20:45 SW 7 10.00 Fair CLR 84.2 66.2 55% 87 29.9 0.0
22 19:45 SW 8 10.00 Fair CLR 87.8 64.4 46% 89 29.92 0.0
22 18:45 SW 12 G 17 10.00 Fair CLR 89.6 64.4 43% 91 29.93 0.0
22 17:45 SW 14 G 20 10.00 Fair CLR 91.4 64.4 41% 93 29.95 0.0
22 16:45 SW 10 G 16 10.00 Partly Cloudy SCT060 SCT070 SCT085 89.6 64.4 43% 91 29.97 0.0
22 15:45 W 12 G 18 10.00 Mostly Cloudy BKN060 BKN070 89.6 64.4 43% 91 29.98 0.0
22 14:45 SW 14 G 20 10.00 Partly Cloudy SCT050 73.4 66.2 78% 30 0.0
22 13:55 W 7 10.00 Partly Cloudy SCT050 SCT065 89.6 66.2 46% 92 30.02 0.0
22 12:55 SW 17 G 21 10.00 Partly Cloudy SCT050 89.6 69.8 52% 95 30.03 0.0
22 11:45 W 1 G 16 10.00 A Few Clouds FEW150 87.8 68 52% 91 30.06 0.0
22 10:45 W 9 10.00 A Few Clouds FEW150 86 68 55% 89 30.08 0.0
22 09:45 SW 7 10.00 A Few Clouds FEW150 82.4 68 62% 85 30.08 0.0
22 08:55 Calm 7.00 Partly Cloudy SCT150 78.8 68 70% 81 30.1 0.0
22 07:55 Calm 7.00 Partly Cloudy SCT150 73.4 71.6 94% 30.12 0.0
22 06:45 Calm 6.00 Fog/Mist Haze FEW040 SCT150 71.6 69.8 94% 30.12 0.0
21 21:45 Calm 10.00 Fair CLR 78.8 71.6 79% 82 30.13 0.0
21 20:45 W 3 10.00 Fair CLR 82.4 69.8 66% 86 30.14 0.0
21 19:45 W 7 10.00 Fair CLR 86 66.2 52% 88 30.14 0.0
21 18:45 NW 5 10.00 Fair CLR 89.6 66.2 46% 92 30.14 0.0
21 17:45 NW 5 10.00 Partly Cloudy SCT060 89.6 66.2 46% 92 30.15 0.0
21 16:45 W 8 10.00 Mostly Cloudy SCT055 BKN070 91.4 66.2 44% 94 30.17 0.0
21 15:45 W 3 10.00 Fair CLR 89.6 64.4 43% 91 30.19 0.0
21 14:45 W 8 10.00 Fair CLR 89.6 62.6 41% 90 30.2 0.0
21 13:45 SW 9 10.00 Fair CLR 87.8 64.4 46% 89 30.23 0.0
21 12:45 Calm 10.00 Mostly Cloudy BKN050 BKN065 86 66.2 52% 88 30.24 0.0
21 11:50 Calm 10.00 Partly Cloudy SCT045 86 66.2 52% 88 30.25 0.0
21 10:45 Calm 10.00 Fair CLR 84.2 66.2 55% 87 30.23 0.0
21 09:58 Calm 10.00 Fair CLR 82.4 68 62% 85 30.26 0.0
21 08:45 Calm 10.00 Fair CLR 75.2 68 78% 76 30.27 0.0
21 07:45 Calm 10.00 Fair CLR 71.6 68 88% 30.27 0.0
21 06:50 Calm 5.00 Fog/Mist CLR 66.2 66.2 100% 30.27 0.0
Date Time (edt) Wind (mph) Vis. (mi.) Weather Sky Cond. Air Dwpt Max. Min. Relative Humidity Wind Chill (°F) Heat Index (°F) altimeter (in) sea level (mb) 1 hr 3 hr 6 hr
6 hour
Temperature (ºF) Pressure Precipitation (in)